Погода в Павлодаре

Поиск расширенной информации на нашем сайте:

Полезная информация:

Новости сайта



02.01.2020
Опубликован Долгосрочный прогноз погоды по городам России и ближнего зарубежья на январь 2020 года.
Карты: Прогноз на январь и февраль 2020 года, Сравнение прогнозируемой аномалии приземной температуры воздуха на январь 2020 года по разным моделям.




Погода в Павлодаре - сегодня

Время (UTC), дата Ветер
(°,м/с) 
Видим.   Явления Облачность Т
(°С)
Тd
(°С)
f(%) Тe
(°С)
Pmin
(гПа)
dP
(гПа)
Po
(мм)
O2
(г/м3)
Тmin Tmax R s Состояние
почвы
09 16.01.21 180 (Ю) 20000 м    8/0 средняя, верхняя 
[Ac lent|Ci fib]
-13.7 -18.5 67 -16  1025.6  -3.6  757  323           
12 16.01.21 170 (Ю) 20000 м    8/0 средняя, верхняя 
[Ac trans|Ci fib]
-14.1 -17.9 73 -19  1022.2  -3.4  755  322           
15 16.01.21 180 (Ю) 20000 м  позёмок  4/0 средняя, верхняя 
[Ac trans|Ci fib]
-13.3 -16.6 76 -19  1018.1  -4  752  320    -12.9       
18 16.01.21 170 (Ю) 20000 м  позёмок  10/0 верхняя 
[Cs]
-13.3 -16.8 75 -19  1014.4  -3.6  749  319    -12.9       
21 16.01.21 200 (Ю) 20000 м    10/0 средняя, верхняя 
[Ac trans|Cs]
-12 -16.2 71 -16  1012.9  -1.4  748  317           
00 17.01.21 220 (ЮЗ) 20000 м    9/4 1000 м средняя 
[Sc|Ac trans]
-11.3 -15.3 72 -13  1012.4  -0.4  748  316           
03 17.01.21 260 (З) 20000 м    8/0 средняя 
[Ac As]
-8.6 -11 83 -12  1014.9  2.6  750  313        23  равномерный
сухой снег
100% 
06 17.01.21 280 (З) 10 км  слаб. снег  9/0 средняя 
[As op]
-5.8 -7.7 86 -9  1017.9  3.1  752  310  -14.8         
09 17.01.21 270 (З) 20000 м  {снег}  9/4 600 м средняя 
[Sc|As op]
-5.7 -9.1 77 -8  1020.2  2.2  754  311           
12 17.01.21 210 (ЮЗ) 20000 м  {снег}  3/0 средняя 
[Ac trans]
-10.2 -12.4 84 -12  1021.1  0.7  754  317           
15 17.01.21 190 (Ю) 20000 м    5/0 верхняя 
[Ci fib]
-15.4 -17.3 85 -19  1020.5  -1  753  323    -5.5       
18 17.01.21 200 (Ю) 20000 м    3/0 верхняя 
[Ci fib]
-12.7 -14.3 88 -16  1014.9  -5.3  749  318    -5.5  0.0     
21 17.01.21 200 (Ю) 20000 м    10/5 1000 м средняя 
[Sc|As op]
-10.5 -12.4 86 -14  1014.4  -0.4  749  315           
00 18.01.21 230 (ЮЗ) 20000 м    10/6 1000 м средняя 
[Sc|Ac und]
-10 -12.2 84 -12  1012.9  -1.3  748  314           
03 18.01.21 250 (З) 20000 м    9/4 1000 м средняя 
[Sc|Ac trans]
-6 -8.3 84 -6  1013.3  0.5  748  309        23  равномерный
сухой снег
100% 
06 18.01.21 280 (З) 20000 м    10/0 средняя 
[Ac und]
-6 -9.1 79 -7  1014.1  0.8  749  310  -16.3         
09 18.01.21 320 (СЗ) 20000 м    10/10 600 м 
[Sc]
-6.8 -9.2 83 -9  1015.1  750  311           
12 18.01.21 260 (З) 20000 м    8/0 средняя, верхняя 
[Ac trans|Ci fib]
-13 -15.3 83 -13  1018  2.5  752  319           
15 18.01.21 300 (СЗ) 20000 м    3/0 верхняя 
[Ci fib]
-16.9 -19.2 82 -19  1019.4  1.1  752  325    -5.4       
18 18.01.21 290 (З) 20000 м    4/0 верхняя 
[Ci fib]
-19.7 -22.3 80 -22  1021.5  1.9  754  329    -5.4       
21 18.01.21 300 (СЗ) 20000 м    8/0 верхняя 
[Ci fib]
-21.4 -24.1 79 -22  1022.5  0.8  755  332           
00 19.01.21 тихо ()   20000 м    9/0 верхняя 
[Ci fib]
-24.2 -27.4 75 -24  1023.4  0.8  755  336           
03 19.01.21 тихо ()   20000 м    10/0 средняя, верхняя 
[Ac lent|Ci fib]
-27.6 -31.3 71 -28  1025.3  1.3  756  341        23  равномерный
сухой снег
100% 
06 19.01.21 170 (Ю) 20000 м    10/0 верхняя 
[Ci fib]
-22.1 -25.3 75 -22  1025  0.4  756  333  -27.8         
09 19.01.21 200 (Ю) 20000 м    10/0 средняя, верхняя 
[Ac trans|Ci fib]
-17.5 -21.2 73 -18  1024.1  -0.6  756  327           
Время (UTC), дата Ветер
(°,м/с) 
Видим.   Явления Облачность Т
(°С)
Тd
(°С)
f(%) Тe
(°С)
Pmin
(гПа)
dP
(гПа)
Po
(мм)
O2
(г/м3)
Тmin Tmax R s Состояние
почвы

Для получения пояснительной информации подведите курсор к названию столбца.

ПОГОДА в Павлодаре - архив

Всё, что Вы хотите узнать о погоде в Павлодаре - удобно и подробно!

Выберите нужную дату (начиная с 1 января 2019* года) и нажмите кнопку "Найти".
Будут отображены архивные сводки погоды по пункту Павлодар, начиная с указанной даты.


Отображать данные в формате CSV (для использования в таблицах Excel)


Внимание! Наш архив погоды предназначен исключительно для личного некоммерческого использования в познавательных целях. Если Вам необходимы официальные справки о состоянии погоды (для производственных, юридических, коммерческих и т.п. целей), обращайтесь в органы Росгидромета.

*Примечание: данная дата относится к архиву по метеостанциям СССР (Россия, СНГ, Балтия).
Архив по метеостанциям Зарубежной Европы и Азии (кроме Китая) хранится 10 дней, по другим регионам земного шара (Китай, Африка, Америка, Австралия, Океания) - 1 день.

Павлодар - район местоположения метеостанции


Название, широта, долгота, высота метеостанции:
Павлодар 52.1°ш. 77.1°д. 125 м над ур. моря [Казахстан]

Дополнительная информация

В oтличие oт бoльшинства пoгoдных сайтoв мы публикуем пoдрoбную метеoинфoрмацию в детальнoм прoфессиoнальнoм фoрмате.

Характеристики температуры и влажнoсти вoздуха измеряются на высoте 2 м в тени вдали oт зданий и деревьев.
Скoрoсть ветра измеряется на высoте 10 м (на урoвне рoста челoвека скoрoсть ветра ниже в 1.5-2 раза). Если метеoстанция нахoдится в гoрoде или в лесу, тo скoрoсть ветра занижена на 2-4 м/с пo сравнению с oткрытым местoм. Скoрoсть ветра над акватoриями крупных рек и oзёр, а также на вершинах хoлмoв на 2-5 м/с выше, чем в oбычных услoвиях.
Атмoсфернoе давление в разных тoчках местнoсти мoжет значительнo oтличаться oт давления на метеoстанции, в зависимoсти oт услoвий рельефа (при пoдъёме на 10 м давление пoнижается примернo на 1 мм рт.ст.).